St. Augustine, FL

2:54 AM EST on January 17, 2018 (GMT -0500)
Saint Augustine

Weather History for KSGJ - February, 2013

Change the Weather History Date:

Monday, February 11, 2013

  Actual Average Record
Temperature  
Mean Temperature 72 °F -  
Max Temperature 82 °F 63 °F 82 °F (2013)
Min Temperature 61 °F 47 °F 31 °F (1978)
Cooling Degree Days 6    
Growing Degree Days 22 (Base 50)    
Moisture  
Dew Point 60 °F    
Average Humidity 74    
Maximum Humidity 90    
Minimum Humidity 45    
Precipitation  
Precipitation 0.00 in - - ()
Sea Level Pressure  
Sea Level Pressure 30.15 in    
Wind  
Wind Speed 8 mph (South)    
Max Wind Speed 16 mph    
Max Gust Speed 24 mph    
Visibility 10 miles    
Events      
Averages and records for this station are not official NWS values.
T = Trace of Precipitation, MM = Missing Value Source: NWS Daily Summary

Daily Weather History Graph

Daily Weather History Graph

Search for Another Location

Airport or City:

Trip Planner

Search our weather history database for the weather conditions in past years. The results will help you decide how hot, cold, wet, or windy it might be!

Date:

Astronomy

Feb. 11, 2013 Rise Set
Actual Time 7:08 AM EST 6:11 PM EST
Civil Twilight 6:43 AM EST 6:35 PM EST
Nautical Twilight 6:15 AM EST 7:04 PM EST
Astronomical Twilight 5:47 AM EST 7:31 PM EST
Moon 7:42 AM EST (2/11) 7:53 PM EST (2/11)
Length of Visible Light 11h 52m
Length of Day
11h 02m
Waxing Crescent, 3% of the Moon is Illuminated
Feb 11
Waxing Crescent
Feb 17
First Quarter
Feb 25
Full
Mar 4
Last Quarter
Mar 11
New

Hourly Weather History & Observations

Time (EST) Temp. Heat Index Dew Point Humidity Pressure Visibility Wind Dir Wind Speed Gust Speed Precip Events Conditions
12:58 AM 64.9 °F - 57.0 °F 75% 30.21 in 10.0 mi South 8.1 mph - N/A   Mostly Cloudy
1:58 AM 64.0 °F - 57.0 °F 78% 30.21 in 10.0 mi South 5.8 mph - N/A   Clear
2:58 AM 61.0 °F - 57.0 °F 87% 30.20 in 10.0 mi South 3.5 mph - N/A   Clear
3:58 AM 61.0 °F - 57.0 °F 87% 30.19 in 10.0 mi South 3.5 mph - N/A   Clear
4:58 AM 61.0 °F - 57.9 °F 90% 30.19 in 10.0 mi South 5.8 mph - N/A   Clear
5:58 AM 62.1 °F - 57.9 °F 86% 30.19 in 10.0 mi South 6.9 mph - N/A   Clear
6:58 AM 63.0 °F - 59.0 °F 87% 30.19 in 10.0 mi South 8.1 mph - N/A   Clear
7:58 AM 64.9 °F - 60.1 °F 84% 30.21 in 10.0 mi South 10.4 mph - N/A   Clear
8:58 AM 70.0 °F - 61.0 °F 73% 30.21 in 10.0 mi South 12.7 mph - N/A   Clear
9:58 AM 72.0 °F - 62.1 °F 71% 30.19 in 10.0 mi South 16.1 mph 24.2 mph N/A   Clear
10:58 AM 75.9 °F - 61.0 °F 60% 30.19 in 10.0 mi SSW 10.4 mph 23.0 mph N/A   Clear
11:58 AM 78.1 °F - 60.1 °F 54% 30.17 in 10.0 mi SSW 13.8 mph 21.9 mph N/A   Clear
12:58 PM 79.0 °F - 59.0 °F 50% 30.15 in 10.0 mi WSW 12.7 mph 21.9 mph N/A   Clear
1:58 PM 81.0 °F 81.3 °F 59.0 °F 47% 30.12 in 10.0 mi SSW 13.8 mph - N/A   Clear
2:58 PM 82.0 °F 82.1 °F 59.0 °F 45% 30.10 in 10.0 mi SSW 8.1 mph - N/A   Scattered Clouds
3:58 PM 75.9 °F - 64.0 °F 67% 30.09 in 10.0 mi SE 11.5 mph - N/A   Scattered Clouds
4:58 PM 73.0 °F - 64.0 °F 73% 30.08 in 10.0 mi SSE 12.7 mph - N/A   Overcast
5:58 PM 71.1 °F - 63.0 °F 75% 30.09 in 10.0 mi SSE 8.1 mph - N/A   Mostly Cloudy
6:58 PM 70.0 °F - 63.0 °F 78% 30.10 in 10.0 mi SSE 9.2 mph - N/A   Overcast
7:58 PM 70.0 °F - 63.0 °F 78% 30.11 in 10.0 mi South 6.9 mph - N/A   Overcast
8:58 PM 68.0 °F - 63.0 °F 84% 30.12 in 10.0 mi Calm Calm - N/A   Clear
9:58 PM 66.9 °F - 62.1 °F 84% 30.11 in 10.0 mi SW 3.5 mph - N/A   Clear
10:58 PM 68.0 °F - 63.0 °F 84% 30.10 in 10.0 mi SSW 3.5 mph - N/A   Clear
11:58 PM 64.9 °F - 61.0 °F 87% 30.11 in 10.0 mi South 4.6 mph - N/A   Clear